カタログに戻る

STARLINK-34724

運用中通信VLEO
NORAD 66442·PAYLOAD·🇺🇸 United States

打ち上げ Nov 11, 2025 から Cape Canaveral Space Force Station

Loading…

次のパス (今後24時間)

TLE

最新Source: CelesTrak SupGP

元期: Sep 14, 2026, 21:30 UTC

1 66442C 25259W   26257.89631944  .00009307  00000+0  33716-3 0  2579
2 66442  43.0001 286.2455 0001448 266.4421  66.3924 15.27568431    19

AllMySatでSTARLINK-34724をリアルタイム追跡

Download on the App Store